Location: Newark
(44.3279°N, 23.7781°E)
Time: 10:16:08
(UTC+00:00)

X-37B - Pass Details

Date: 06 February 2022
Orbit: 329 x 342 km, 45.0° (Epoch: 18 May)

Event Time Altitude Azimuth Distance (km) Brightness Sun altitude
Rises 16:15:30 0° 281° (WNW) 2,125 5.6 -6.7°
Reaches altitude 10° 16:17:31 10° 279° (W) 1,284 4.5 -7.0°
Maximum altitude 16:20:23 71° 196° (SSW) 362 0.5 -7.5°
Drops below altitude 10° 16:23:13 10° 111° (ESE) 1,274 2.7 -8.0°
Enters shadow 16:23:38 - 110° (ESE) 1,440 3.0 -8.1°
